SWA311 KOKC-KDAL

Flight info

Callsign SWA311
Flight time 0h 39m
Altitude 27000
Route KRMSN4 KRMSN AIRRE HIBIL3
Aircraft B737/M-SDE2E3FGHIRWXY/LB1

Departure

Time 2026-04-12 04:43
Airport OKC Will Rogers World Airport (KOKC)

Arrival

Time 2026-04-12 05:23
Airport Dallas Love Field (KDAL)
Time Latitude Longitude Altitude Speed Heading
2026-04-12 04:27 35.39458 -97.59616 1296 ft 0 kts 353°
2026-04-12 04:37 35.39419 -97.59610 1296 ft 4 kts 353°
2026-04-12 04:37 35.39392 -97.59606 1296 ft 4 kts 353°
2026-04-12 04:37 35.39386 -97.59605 1296 ft 0 kts 353°
2026-04-12 04:40 35.39388 -97.59594 1296 ft 5 kts 82°
2026-04-12 04:40 35.39384 -97.59475 1297 ft 21 kts 90°
2026-04-12 04:40 35.39386 -97.59281 1295 ft 23 kts 78°
2026-04-12 04:40 35.39475 -97.59136 1294 ft 23 kts 89°
2026-04-12 04:41 35.39590 -97.59062 1291 ft 22 kts 360°
2026-04-12 04:41 35.39744 -97.59064 1294 ft 24 kts 359°
2026-04-12 04:41 35.39921 -97.59065 1291 ft 27 kts 360°
2026-04-12 04:41 35.40103 -97.59064 1292 ft 25 kts
2026-04-12 04:42 35.40272 -97.59062 1291 ft 24 kts
2026-04-12 04:42 35.40448 -97.59062 1290 ft 26 kts
2026-04-12 04:42 35.40504 -97.58961 1292 ft 11 kts 92°
2026-04-12 04:43 35.40316 -97.58894 1293 ft 54 kts 180°
2026-04-12 04:43 35.39644 -97.58892 1291 ft 136 kts 180°
2026-04-12 04:43 35.38523 -97.58900 1628 ft 178 kts 180°
2026-04-12 04:43 35.37278 -97.58887 2746 ft 167 kts 168°
2026-04-12 04:44 35.36214 -97.58298 3776 ft 177 kts 149°
2026-04-12 04:44 35.35204 -97.57312 4417 ft 194 kts 144°
2026-04-12 04:44 35.34134 -97.56214 4895 ft 220 kts 143°
2026-04-12 04:44 35.32871 -97.54871 5365 ft 248 kts 142°
2026-04-12 04:45 35.31549 -97.53444 6263 ft 259 kts 142°
2026-04-12 04:45 35.30181 -97.51964 7188 ft 266 kts 141°
2026-04-12 04:45 35.28776 -97.50446 8138 ft 272 kts 141°
2026-04-12 04:45 35.27341 -97.48897 9097 ft 278 kts 141°
2026-04-12 04:46 35.25866 -97.47309 10006 ft 285 kts 140°
2026-04-12 04:46 35.24359 -97.45689 10584 ft 304 kts 140°
2026-04-12 04:46 35.22689 -97.43899 10790 ft 333 kts 140°
2026-04-12 04:46 35.20890 -97.41972 11253 ft 351 kts 140°
2026-04-12 04:47 35.19040 -97.39988 12050 ft 356 kts 140°
2026-04-12 04:47 35.17169 -97.37983 12925 ft 359 kts 140°
2026-04-12 04:47 35.15277 -97.35958 13757 ft 364 kts 140°
2026-04-12 04:47 35.13357 -97.33904 14482 ft 369 kts 140°
2026-04-12 04:48 35.11403 -97.31817 15218 ft 374 kts 140°
2026-04-12 04:48 35.09431 -97.29712 15949 ft 379 kts 140°
2026-04-12 04:48 35.07432 -97.27580 16659 ft 384 kts 140°
2026-04-12 04:48 35.05404 -97.25418 17378 ft 389 kts 140°
2026-04-12 04:49 35.03355 -97.23236 18079 ft 394 kts 140°
2026-04-12 04:49 35.01303 -97.21050 18709 ft 398 kts 140°
2026-04-12 04:49 34.99199 -97.18813 19306 ft 403 kts 141°
2026-04-12 04:49 34.97072 -97.16560 19916 ft 407 kts 141°
2026-04-12 04:50 34.94881 -97.14340 20529 ft 411 kts 143°
2026-04-12 04:50 34.92652 -97.12128 21137 ft 415 kts 143°
2026-04-12 04:50 34.90402 -97.09875 21695 ft 420 kts 142°
2026-04-12 04:50 34.88154 -97.07565 22250 ft 425 kts 142°
2026-04-12 04:51 34.85897 -97.05220 22787 ft 429 kts 142°
2026-04-12 04:51 34.83614 -97.02842 23333 ft 433 kts 142°
2026-04-12 04:51 34.81337 -97.00473 23814 ft 438 kts 142°
2026-04-12 04:51 34.79015 -96.98062 24249 ft 441 kts 142°
2026-04-12 04:52 34.76666 -96.95631 24701 ft 445 kts 142°
2026-04-12 04:52 34.74300 -96.93187 25138 ft 448 kts 142°
2026-04-12 04:52 34.71917 -96.90728 25559 ft 452 kts 142°
2026-04-12 04:52 34.69508 -96.88246 25987 ft 455 kts 142°
2026-04-12 04:53 34.67077 -96.85744 26438 ft 457 kts 142°
2026-04-12 04:53 34.64648 -96.83245 26939 ft 459 kts 142°
2026-04-12 04:53 34.59741 -96.78204 27095 ft 462 kts 142°
2026-04-12 04:54 34.57295 -96.75693 27098 ft 460 kts 142°
2026-04-12 04:54 34.54843 -96.73178 27105 ft 461 kts 142°
2026-04-12 04:54 34.52394 -96.70669 27109 ft 461 kts 142°
2026-04-12 04:54 34.49937 -96.68153 27103 ft 462 kts 142°
2026-04-12 04:55 34.47485 -96.65646 27101 ft 462 kts 142°
2026-04-12 04:55 34.45027 -96.63134 27094 ft 462 kts 142°
2026-04-12 04:55 34.42566 -96.60620 27095 ft 462 kts 142°
2026-04-12 04:55 34.40134 -96.58139 27094 ft 462 kts 142°
2026-04-12 04:56 34.37677 -96.55633 27092 ft 462 kts 142°
2026-04-12 04:56 34.35218 -96.53128 27099 ft 462 kts 142°
2026-04-12 04:56 34.32762 -96.50628 27100 ft 462 kts 142°
2026-04-12 04:56 34.30299 -96.48123 27098 ft 462 kts 142°
2026-04-12 04:57 34.27835 -96.45618 27100 ft 462 kts 142°
2026-04-12 04:57 34.25375 -96.43120 27111 ft 462 kts 142°
2026-04-12 04:57 34.22918 -96.40626 27107 ft 462 kts 142°
2026-04-12 04:57 34.20459 -96.38133 27124 ft 462 kts 142°
2026-04-12 04:58 34.17996 -96.35638 27129 ft 462 kts 142°
2026-04-12 04:58 34.15547 -96.33158 27121 ft 457 kts 142°
2026-04-12 04:58 34.13120 -96.30701 27133 ft 452 kts 142°
2026-04-12 04:58 34.10720 -96.28274 27138 ft 450 kts 142°
2026-04-12 04:59 34.08308 -96.25839 27156 ft 452 kts 142°
2026-04-12 04:59 34.05893 -96.23402 27001 ft 453 kts 142°
2026-04-12 04:59 34.03471 -96.20959 26400 ft 453 kts 142°
2026-04-12 04:59 34.01066 -96.18535 25805 ft 448 kts 142°
2026-04-12 05:00 33.98692 -96.16142 25182 ft 443 kts 142°
2026-04-12 05:00 33.96330 -96.13765 24532 ft 440 kts 142°
2026-04-12 05:00 33.93991 -96.11414 23904 ft 436 kts 141°
2026-04-12 05:00 33.91501 -96.09394 23227 ft 429 kts 159°
2026-04-12 05:01 33.88712 -96.08463 23078 ft 407 kts 174°
2026-04-12 05:01 33.85909 -96.08397 22402 ft 401 kts 189°
2026-04-12 05:01 33.83241 -96.09178 21844 ft 392 kts 201°
2026-04-12 05:01 33.80728 -96.10303 21291 ft 388 kts 203°
2026-04-12 05:02 33.78230 -96.11492 20732 ft 384 kts 203°
2026-04-12 05:02 33.75758 -96.12672 20178 ft 380 kts 203°
2026-04-12 05:02 33.73307 -96.13825 19644 ft 377 kts 202°
2026-04-12 05:02 33.70865 -96.14956 19122 ft 374 kts 202°
2026-04-12 05:03 33.68438 -96.16068 18554 ft 372 kts 202°
2026-04-12 05:03 33.66022 -96.17168 17956 ft 369 kts 202°
2026-04-12 05:03 33.63629 -96.18255 17396 ft 366 kts 202°
2026-04-12 05:03 33.61266 -96.19328 16859 ft 362 kts 202°
2026-04-12 05:04 33.58915 -96.20394 16264 ft 360 kts 202°
2026-04-12 05:04 33.56566 -96.21407 15731 ft 357 kts 199°
2026-04-12 05:04 33.54206 -96.22291 15217 ft 354 kts 198°
2026-04-12 05:04 33.51858 -96.23133 14710 ft 350 kts 198°
2026-04-12 05:05 33.49623 -96.24221 14219 ft 345 kts 213°
2026-04-12 05:05 33.47891 -96.26158 13773 ft 338 kts 234°
2026-04-12 05:05 33.46683 -96.28492 13313 ft 333 kts 240°
2026-04-12 05:05 33.45577 -96.30924 12716 ft 332 kts 242°
2026-04-12 05:06 33.44498 -96.33372 12154 ft 331 kts 242°
2026-04-12 05:06 33.43434 -96.35807 11629 ft 329 kts 242°
2026-04-12 05:06 33.42379 -96.38239 11070 ft 328 kts 242°
2026-04-12 05:06 33.41333 -96.40660 10558 ft 327 kts 242°
2026-04-12 05:07 33.40293 -96.43074 10342 ft 321 kts 242°
2026-04-12 05:07 33.39296 -96.45400 10217 ft 307 kts 242°
2026-04-12 05:07 33.38347 -96.47623 10099 ft 294 kts 242°
2026-04-12 05:07 33.37432 -96.49779 9781 ft 289 kts 242°
2026-04-12 05:08 33.36534 -96.51930 9350 ft 289 kts 242°
2026-04-12 05:08 33.35651 -96.54082 8980 ft 286 kts 242°
2026-04-12 05:08 33.34798 -96.56191 8603 ft 284 kts 242°
2026-04-12 05:08 33.33943 -96.58324 8210 ft 283 kts 242°
2026-04-12 05:09 33.33101 -96.60447 7826 ft 282 kts 242°
2026-04-12 05:09 33.32266 -96.62572 7466 ft 280 kts 242°
2026-04-12 05:09 33.31451 -96.64677 7106 ft 279 kts 242°
2026-04-12 05:09 33.30649 -96.66782 6758 ft 277 kts 242°
2026-04-12 05:10 33.29861 -96.68882 6382 ft 276 kts 242°
2026-04-12 05:10 33.29086 -96.70976 6012 ft 274 kts 242°
2026-04-12 05:10 33.28327 -96.73058 5671 ft 272 kts 242°
2026-04-12 05:10 33.27834 -96.74428 5421 ft 271 kts 242°
2026-04-12 05:11 33.27094 -96.76506 5042 ft 271 kts 242°
2026-04-12 05:11 33.26372 -96.78573 4740 ft 268 kts 242°
2026-04-12 05:11 33.25445 -96.81274 4294 ft 264 kts 243°
2026-04-12 05:11 33.24753 -96.83309 3867 ft 265 kts 243°
2026-04-12 05:12 33.24288 -96.84690 3635 ft 264 kts 242°
2026-04-12 05:12 33.23563 -96.86683 3292 ft 258 kts 232°
2026-04-12 05:12 33.22482 -96.88352 3055 ft 251 kts 224°
2026-04-12 05:12 33.21345 -96.89894 3020 ft 251 kts 223°
2026-04-12 05:13 33.20181 -96.91458 2995 ft 251 kts 223°
2026-04-12 05:13 33.19027 -96.93008 2985 ft 245 kts 223°
2026-04-12 05:13 33.17931 -96.94494 2950 ft 231 kts 223°
2026-04-12 05:13 33.16896 -96.95896 2859 ft 220 kts 223°
2026-04-12 05:14 33.15914 -96.97243 2803 ft 209 kts 222°
2026-04-12 05:14 33.14988 -96.98535 2688 ft 201 kts 222°
2026-04-12 05:14 33.14000 -96.99695 2617 ft 200 kts 211°
2026-04-12 05:14 33.12926 -97.00699 2594 ft 201 kts 213°
2026-04-12 05:15 33.11827 -97.01735 2566 ft 192 kts 209°
2026-04-12 05:15 33.10623 -97.02263 2513 ft 185 kts 185°
2026-04-12 05:15 33.09305 -97.02465 2537 ft 205 kts 184°
2026-04-12 05:15 33.07844 -97.02672 2510 ft 211 kts 184°
2026-04-12 05:16 33.06461 -97.02872 2474 ft 193 kts 185°
2026-04-12 05:16 33.05188 -97.03057 2460 ft 175 kts 185°
2026-04-12 05:16 33.04028 -97.03226 2479 ft 166 kts 184°
2026-04-12 05:16 33.02903 -97.03389 2485 ft 158 kts 184°
2026-04-12 05:17 33.01867 -97.03269 2493 ft 144 kts 163°
2026-04-12 05:17 33.00925 -97.02866 2469 ft 145 kts 148°
2026-04-12 05:17 33.00141 -97.02125 2487 ft 143 kts 146°
2026-04-12 05:17 32.99361 -97.01391 2486 ft 143 kts 144°
2026-04-12 05:18 32.98612 -97.00606 2488 ft 144 kts 142°
2026-04-12 05:18 32.97887 -96.99800 2488 ft 145 kts 141°
2026-04-12 05:18 32.97161 -96.98971 2487 ft 145 kts 140°
2026-04-12 05:18 32.96440 -96.98139 2491 ft 144 kts 140°
2026-04-12 05:19 32.95718 -96.97301 2435 ft 146 kts 140°
2026-04-12 05:19 32.94999 -96.96467 2370 ft 143 kts 140°
2026-04-12 05:19 32.94291 -96.95643 2277 ft 141 kts 140°
2026-04-12 05:19 32.93580 -96.94816 2206 ft 143 kts 140°
2026-04-12 05:20 32.92886 -96.94008 2114 ft 136 kts 140°
2026-04-12 05:20 32.92250 -96.93267 2058 ft 123 kts 141°
2026-04-12 05:20 32.91661 -96.92583 1955 ft 119 kts 141°
2026-04-12 05:20 32.91071 -96.91898 1887 ft 119 kts 141°
2026-04-12 05:21 32.90481 -96.91214 1765 ft 119 kts 140°
2026-04-12 05:21 32.89878 -96.90512 1599 ft 125 kts 139°
2026-04-12 05:21 32.89243 -96.89772 1450 ft 127 kts 140°
2026-04-12 05:21 32.88600 -96.89025 1297 ft 129 kts 139°
2026-04-12 05:22 32.87955 -96.88274 1156 ft 129 kts 136°
2026-04-12 05:22 32.87293 -96.87504 987 ft 134 kts 135°
2026-04-12 05:22 32.86653 -96.86758 794 ft 130 kts 135°
2026-04-12 05:22 32.86009 -96.86005 613 ft 130 kts 135°
2026-04-12 05:23 32.85375 -96.85267 486 ft 120 kts 136°
2026-04-12 05:23 32.84856 -96.84668 484 ft 82 kts 136°
2026-04-12 05:23 32.84583 -96.84354 490 ft 43 kts 136°
2026-04-12 05:23 32.84448 -96.84259 481 ft 18 kts 211°
2026-04-12 05:24 32.84434 -96.84363 484 ft 13 kts 314°
2026-04-12 05:24 32.84498 -96.84436 481 ft 12 kts 317°
2026-04-12 05:24 32.84559 -96.84508 484 ft 13 kts 315°
2026-04-12 05:24 32.84604 -96.84601 483 ft 15 kts 277°
2026-04-12 05:25 32.84672 -96.84709 480 ft 19 kts 315°
2026-04-12 05:25 32.84743 -96.84839 480 ft 19 kts 275°
2026-04-12 05:25 32.84744 -96.84993 483 ft 18 kts 270°
2026-04-12 05:25 32.84740 -96.85121 483 ft 12 kts 245°
2026-04-12 05:26 32.84661 -96.85139 478 ft 12 kts 180°
2026-04-12 05:26 32.84649 -96.85139 478 ft 0 kts 180°